Regional Weather Roundup
Issued by NWS

Home | Current Version | Previous Version | Text Only | Print | Product List | Glossary On
Versions: 1 2 3 4 5 6 7 8 9 10 11 12 13 14 15 16 17 18 19 20 21 22 23 24 25 26 27 28 29 30 31 32 33 34 35 36 37 38 39 40 41 42 43 44 45 46 47 48 49 50
000
ASUS43 KDTX 021010
RWRMI
MICHIGAN HOURLY REGIONAL WEATHER ROUNDUP
NATIONAL WEATHER SERVICE DETROIT/PONTIAC MI
600 AM EDT THU JUL 02 2015

NOTE: "FAIR" INDICATES FEW OR NO CLOUDS BELOW 12,000 FEET WITH NO
SIGNIFICANT WEATHER AND/OR OBSTRUCTION TO VISIBILITY.

MIZ047>049-052>055-059>063-066>070-074>076-081>083-021100-
SOUTHEAST LOWER MICHIGAN

CITY           SKY/WX    TMP DP  RH WIND       PRES   REMARKS
ADRIAN         CLOUDY    58  56  93 NE7       29.97S
ALMA           CLOUDY    55  53  92 NE6       30.02R
ANN ARBOR      CLEAR     53  52  96 NE3       29.97S FOG
BAD AXE        PTCLDY    47  46  96 CALM      30.01R FOG
CARO           CLEAR     50  49  97 CALM      29.99S FOG
DETROIT CITY   CLEAR     58  54  86 NE5       29.98S
DETROIT        CLOUDY    58  56  93 N6        29.97F
FLINT          CLOUDY    59  56  89 CALM      29.99S
GROSSE ILE     PTCLDY    61  57  88 NE8       29.96S
HILLSDALE      CLEAR     55  55 100 NE5       29.97S FOG
HOWELL         CLOUDY    55  55  99 CALM      29.98F FOG

CITY           SKY/WX    TMP DP  RH WIND       PRES   REMARKS
JACKSON        FOG       54  53  97 NE5       29.98S VSB 1
LAMBERTVILLE   MOCLDY    60  57  89 NE5       29.96S FOG
LANSING        CLOUDY    56  53  90 CALM      30.00R
LAPEER         MOCLDY    55  53  95 CALM      30.00S
MASON          CLOUDY    54  53  97 CALM      29.98F
MONROE         MOCLDY    58  57  97 CALM      29.96S FOG
MT. CLEMENS    CLOUDY    58  55  87 N6        29.96F
PONTIAC        MOCLDY    59  55  87 NE5       29.98S
PORT HOPE        N/A     56  53  90 VRB5      29.99R
PORT HURON     CLOUDY    55  54  94 CALM      29.99S
TRI CITIES     CLOUDY    58  52  80 N5        30.02R
MIDLAND        MOCLDY    52  50  93 CALM      30.01R
TROY           CLOUDY    60  57  88 NE3       30.00S
SAGINAW HB     CLOUDY    54  54 100 CALM      30.00R
$$
MIZ043>046-050>051-056>058-064>065-071>073-077>080-021100-
SOUTHWEST LOWER MICHIGAN

CITY           SKY/WX    TMP DP  RH WIND       PRES   REMARKS
BATTLE CREEK   PTCLDY    54  51  90 NE6       29.98F
BENTON HARBOR  CLEAR     50  49  96 NE3       29.97F
BIG RAPIDS     CLEAR     48  44  88 CALM      30.02R
COLDWATER      PTCLDY    54  54  99 NE7       29.97R
FREMONT        FAIR      50  48  95 NE3       30.01R
HOLLAND        CLEAR     53  51  93 CALM      30.00S
GRAND RAPIDS   PTCLDY    53  51  93 NE3       30.00R
IONIA          CLOUDY    54  53  96 NE6       30.00R
KALAMAZOO      CLEAR     54  51  90 CALM      29.98F
LUDINGTON      CLEAR     44  42  92 CALM      30.03S
MARSHALL       CLEAR     53  52  96 CALM      29.97S
MOUNT PLEASANT CLOUDY    52  50  92 CALM      30.01S
MUSKEGON       PTCLDY    52  49  89 NE5       30.01R
SOUTH HAVEN    CLEAR     51  49  95 CALM      29.98S
$$
MIZ016>042-021100-
NORTHERN LOWER MICHIGAN

CITY           SKY/WX    TMP DP  RH WIND       PRES   REMARKS
ALPENA         CLEAR     45  43  93 CALM      30.02R
BEAVER ISLAND  CLEAR     40  39  97 CALM      30.05R
BELLAIRE       MOCLDY    40  39  96 CALM      30.05R FOG
CADILLAC       FOG       39  38  96 CALM      30.02S VSB 1
CHARLEVOIX     CLEAR     45  44  97 CALM      30.07R
FRANKFORT      CLEAR     42  37  82 CALM      30.04R
GAYLORD        CLEAR     43  42  97 CALM      30.04R
GRAYLING         N/A     38  38  99 CALM      30.04R FOG
HARBOR SPRINGS CLEAR     44  42  95 CALM      30.04S
HOUGHTON LAKE  CLEAR     43  42  97 E5        30.03S
MANISTEE       CLEAR     41  37  87 CALM      30.03S
OSCODA         CLEAR     48  47  96 CALM      30.01R
PELLSTON       CLEAR     41  39  93 CALM      30.04S
ROGERS CITY    CLEAR     48  47  94 W3        30.04R
TRAVERSE CITY  CLEAR     44  42  93 CALM      30.03R
$$
MIZ007>008-015-021100-
EASTERN UPPER MICHIGAN

CITY           SKY/WX    TMP DP  RH WIND       PRES   REMARKS
KINROSS        CLEAR     43  41  93 W3        30.03S
MACKINAC ISLAN CLEAR     48  45  91 N7        30.03S
NEWBERRY       CLOUDY    44  43  97 CALM      30.02F
S. S. MARIE    CLEAR     44  41  89 CALM      30.02S
MUNISING         N/A     47  43  86 S6        30.03R
$$
MIZ004>006-011>014-085-021100-
CENTRAL UPPER MICHIGAN

CITY           SKY/WX    TMP DP  RH WIND       PRES   REMARKS
MANISTIQUE     CLOUDY    45  42  89 CALM      30.03S
ESCANABA       CLEAR     41  37  87 W5        30.04S
MENOMINEE      CLEAR     46  41  81 CALM      30.05R
SAWYER-GWINN   MOCLDY    46  43  88 CALM      30.04S
$$
MIZ001>003-009>011-084-021100-
WESTERN UPPER MICHIGAN

CITY           SKY/WX    TMP DP  RH WIND       PRES   REMARKS
IRON MOUNTAIN  CLEAR     42  40  92 N5        30.05R
HOUGHTON       MOCLDY    54  46  74 CALM      30.01R
COPPER HARBOR    N/A     58  43  57 CALM      30.00S
IRONWOOD       CLEAR     48  45  87 CALM      30.01R
$$

ABBREVIATIONS USED IN REMARKS
   TC - TEMPERATURE IN CELSIUS
  WCI - WIND CHILL INDEX
   HX - HEAT INDEX
  VSB - VISIBILITY



USA.gov is the U.S. government's official web portal to all federal, state and local government web resources and services.